Time,TemperatureF,DewpointF,PressureIn,WindDirection,WindDirectionDegrees,WindSpeedMPH,WindSpeedGustMPH,Humidity,HourlyPrecipIn,Conditions,Clouds,dailyrainin,SolarRadiationWatts/m^2,SoftwareType,DateUTC
2013-03-25 00:04:00,33.6,25.6,29.94,SE,130,2.0,7.0,72,0.00,,,0.00,0,WeatherCatV1.14B232,2013-03-25 00:04:00,
2013-03-25 00:09:00,33.6,25.2,29.94,South,180,1.0,6.0,71,0.00,,,0.00,0,WeatherCatV1.14B232,2013-03-25 00:09:00,
2013-03-25 00:14:00,33.5,25.1,29.94,SE,146,2.0,2.0,71,0.00,,,0.00,0,WeatherCatV1.14B232,2013-03-25 00:14:00,
2013-03-25 00:19:00,33.5,25.1,29.94,SE,130,2.0,5.0,71,0.00,,,0.00,0,WeatherCatV1.14B232,2013-03-25 00:19:00,
2013-03-25 00:24:00,33.5,25.1,29.94,SE,125,1.0,5.0,71,0.00,,,0.00,0,WeatherCatV1.14B232,2013-03-25 00:24:00,
2013-03-25 00:29:00,33.4,25.0,29.94,SSE,162,1.0,2.0,71,0.00,,,0.00,0,WeatherCatV1.14B232,2013-03-25 00:29:00,
2013-03-25 00:34:00,33.4,25.0,29.94,SE,124,0.0,4.0,71,0.00,,,0.00,0,WeatherCatV1.14B232,2013-03-25 00:34:00,
2013-03-25 00:39:00,33.4,25.0,29.94,ESE,111,3.0,3.0,71,0.00,,,0.00,0,WeatherCatV1.14B232,2013-03-25 00:39:00,
2013-03-25 00:44:00,33.4,25.0,29.94,ENE,78,0.0,3.0,71,0.00,,,0.00,0,WeatherCatV1.14B232,2013-03-25 00:44:00,
2013-03-25 00:49:00,33.4,25.4,29.94,SSE,168,0.0,2.0,72,0.00,,,0.00,0,WeatherCatV1.14B232,2013-03-25 00:49:00,
2013-03-25 00:54:00,33.4,25.0,29.94,SSE,167,0.0,3.0,71,0.00,,,0.00,0,WeatherCatV1.14B232,2013-03-25 00:54:00,
2013-03-25 00:59:00,33.4,25.0,29.94,ESE,117,1.0,7.0,71,0.00,,,0.00,0,WeatherCatV1.14B232,2013-03-25 00:59:00,
2013-03-25 01:04:00,33.3,24.9,29.94,ESE,117,1.0,3.0,71,0.00,,,0.00,0,WeatherCatV1.14B232,2013-03-25 01:04:00,
2013-03-25 01:09:00,33.3,24.9,29.94,SSE,152,3.0,3.0,71,0.00,,,0.00,0,WeatherCatV1.14B232,2013-03-25 01:09:00,
2013-03-25 01:14:00,33.3,25.3,29.94,SE,130,1.0,4.0,72,0.00,,,0.00,0,WeatherCatV1.14B232,2013-03-25 01:14:00,
2013-03-25 01:19:00,33.3,25.3,29.94,ESE,123,5.0,5.0,72,0.00,,,0.00,0,WeatherCatV1.14B232,2013-03-25 01:19:00,
2013-03-25 01:24:00,33.3,25.3,29.94,SSE,167,1.0,8.0,72,0.00,,,0.00,0,WeatherCatV1.14B232,2013-03-25 01:24:00,
2013-03-25 01:29:00,33.3,25.3,29.94,SSE,149,2.0,4.0,72,0.00,,,0.00,0,WeatherCatV1.14B232,2013-03-25 01:29:00,
2013-03-25 01:34:00,33.3,25.3,29.94,SE,126,2.0,4.0,72,0.00,,,0.00,0,WeatherCatV1.14B232,2013-03-25 01:34:00,
2013-03-25 01:39:00,33.2,25.2,29.93,NNW,347,0.0,6.0,72,0.00,,,0.00,0,WeatherCatV1.14B232,2013-03-25 01:39:00,
2013-03-25 01:44:00,33.2,25.2,29.93,SE,126,4.0,6.0,72,0.00,,,0.00,0,WeatherCatV1.14B232,2013-03-25 01:44:00,
2013-03-25 01:49:00,33.2,25.2,29.94,SE,131,1.0,6.0,72,0.00,,,0.00,0,WeatherCatV1.14B232,2013-03-25 01:49:00,
2013-03-25 01:54:00,33.1,25.1,29.94,SSE,163,1.0,5.0,72,0.00,,,0.00,0,WeatherCatV1.14B232,2013-03-25 01:54:00,
2013-03-25 01:59:00,33.1,25.1,29.94,South,175,2.0,4.0,72,0.00,,,0.00,0,WeatherCatV1.14B232,2013-03-25 01:59:00,
2013-03-25 02:04:00,33.1,25.1,29.94,SE,133,2.0,4.0,72,0.00,,,0.00,0,WeatherCatV1.14B232,2013-03-25 02:04:00,
2013-03-25 02:09:00,33.1,25.1,29.94,SSW,194,0.0,5.0,72,0.00,,,0.00,0,WeatherCatV1.14B232,2013-03-25 02:09:00,
2013-03-25 02:14:00,33.0,25.0,29.94,SW,231,1.0,4.0,72,0.00,,,0.00,0,WeatherCatV1.14B232,2013-03-25 02:14:00,
2013-03-25 02:19:00,33.0,25.0,29.94,ESE,123,1.0,7.0,72,0.00,,,0.00,0,WeatherCatV1.14B232,2013-03-25 02:19:00,
2013-03-25 02:24:00,33.0,25.0,29.94,SE,129,1.0,5.0,72,0.00,,,0.00,0,WeatherCatV1.14B232,2013-03-25 02:24:00,
2013-03-25 02:29:00,33.0,25.0,29.94,SSE,165,1.0,5.0,72,0.00,,,0.00,0,WeatherCatV1.14B232,2013-03-25 02:29:00,
2013-03-25 02:34:00,32.9,24.9,29.94,SE,133,4.0,6.0,72,0.00,,,0.00,0,WeatherCatV1.14B232,2013-03-25 02:34:00,
2013-03-25 02:39:00,32.9,24.9,29.94,South,175,0.0,2.0,72,0.00,,,0.00,0,WeatherCatV1.14B232,2013-03-25 02:39:00,
2013-03-25 02:44:00,32.9,24.9,29.94,SSE,163,0.0,1.0,72,0.00,,,0.00,0,WeatherCatV1.14B232,2013-03-25 02:44:00,
2013-03-25 02:49:00,32.9,24.9,29.94,SE,134,1.0,2.0,72,0.00,,,0.00,0,WeatherCatV1.14B232,2013-03-25 02:49:00,
2013-03-25 02:54:00,32.8,24.8,29.94,East,88,2.0,4.0,72,0.00,,,0.00,0,WeatherCatV1.14B232,2013-03-25 02:54:00,
2013-03-25 02:59:00,32.8,25.1,29.94,ESE,119,1.0,7.0,73,0.00,,,0.00,0,WeatherCatV1.14B232,2013-03-25 02:59:00,
2013-03-25 03:04:00,32.8,25.1,29.94,SE,133,1.0,4.0,73,0.00,,,0.00,0,WeatherCatV1.14B232,2013-03-25 03:04:00,
2013-03-25 03:09:00,32.7,25.0,29.94,SE,138,1.0,4.0,73,0.00,,,0.00,0,WeatherCatV1.14B232,2013-03-25 03:09:00,
2013-03-25 03:14:00,32.7,25.0,29.94,SE,138,2.0,4.0,73,0.00,,,0.00,0,WeatherCatV1.14B232,2013-03-25 03:14:00,
2013-03-25 03:19:00,32.6,25.2,29.94,SE,144,0.0,5.0,74,0.00,,,0.00,0,WeatherCatV1.14B232,2013-03-25 03:19:00,
2013-03-25 03:24:00,32.6,25.2,29.94,SSE,167,2.0,6.0,74,0.00,,,0.00,0,WeatherCatV1.14B232,2013-03-25 03:24:00,
2013-03-25 03:29:00,32.6,25.2,29.94,SE,140,1.0,3.0,74,0.00,,,0.00,0,WeatherCatV1.14B232,2013-03-25 03:29:00,
2013-03-25 03:34:00,32.6,25.2,29.94,South,171,1.0,4.0,74,0.00,,,0.00,0,WeatherCatV1.14B232,2013-03-25 03:34:00,
2013-03-25 03:39:00,32.5,25.2,29.94,SE,125,1.0,6.0,74,0.00,,,0.00,0,WeatherCatV1.14B232,2013-03-25 03:39:00,
2013-03-25 03:44:00,32.5,25.2,29.94,East,90,0.0,9.0,74,0.00,,,0.00,0,WeatherCatV1.14B232,2013-03-25 03:44:00,
2013-03-25 03:49:00,32.5,25.2,29.94,SSE,156,4.0,7.0,74,0.00,,,0.00,0,WeatherCatV1.14B232,2013-03-25 03:49:00,
2013-03-25 03:54:00,32.4,25.4,29.94,SE,140,1.0,3.0,75,0.00,,,0.00,0,WeatherCatV1.14B232,2013-03-25 03:54:00,
2013-03-25 03:59:00,32.4,25.1,29.95,ESE,123,2.0,5.0,74,0.00,,,0.00,0,WeatherCatV1.14B232,2013-03-25 03:59:00,
2013-03-25 04:00:00,32.4,25.1,29.95,SE,126,0.0,5.0,74,0.00,,,0.00,0,WeatherCatV1.14B232,2013-03-25 04:00:00,
2013-03-25 04:01:00,32.4,25.4,29.95,SE,130,1.0,5.0,75,0.00,,,0.00,0,WeatherCatV1.14B232,2013-03-25 04:01:00,
2013-03-25 04:06:00,32.4,25.1,29.95,East,95,1.0,4.0,74,0.00,,,0.00,0,WeatherCatV1.14B232,2013-03-25 04:06:00,
2013-03-25 04:11:00,32.4,25.4,29.95,SE,124,0.0,5.0,75,0.00,,,0.00,0,WeatherCatV1.14B232,2013-03-25 04:11:00,
2013-03-25 04:16:00,32.3,25.0,29.95,SE,142,4.0,6.0,74,0.00,,,0.00,0,WeatherCatV1.14B232,2013-03-25 04:16:00,
2013-03-25 04:21:00,32.3,25.3,29.95,WSW,252,2.0,3.0,75,0.00,,,0.00,0,WeatherCatV1.14B232,2013-03-25 04:21:00,
2013-03-25 04:26:00,32.3,25.3,29.95,South,180,1.0,2.0,75,0.00,,,0.00,0,WeatherCatV1.14B232,2013-03-25 04:26:00,
2013-03-25 04:31:00,32.2,25.2,29.95,SSE,147,3.0,5.0,75,0.00,,,0.00,0,WeatherCatV1.14B232,2013-03-25 04:31:00,
2013-03-25 04:36:00,32.2,25.2,29.95,SE,135,6.0,6.0,75,0.00,,,0.00,0,WeatherCatV1.14B232,2013-03-25 04:36:00,
2013-03-25 04:41:00,32.2,25.2,29.94,SE,126,1.0,3.0,75,0.00,,,0.00,0,WeatherCatV1.14B232,2013-03-25 04:41:00,
2013-03-25 04:46:00,32.1,25.1,29.95,South,176,2.0,5.0,75,0.00,,,0.00,0,WeatherCatV1.14B232,2013-03-25 04:46:00,
2013-03-25 04:51:00,32.1,25.1,29.95,SE,135,1.0,3.0,75,0.00,,,0.00,0,WeatherCatV1.14B232,2013-03-25 04:51:00,
2013-03-25 04:56:00,32.1,25.1,29.95,South,173,0.0,2.0,75,0.00,,,0.00,0,WeatherCatV1.14B232,2013-03-25 04:56:00,
2013-03-25 05:01:00,32.0,25.0,29.95,South,171,1.0,10.0,75,0.00,,,0.00,0,WeatherCatV1.14B232,2013-03-25 05:01:00,
2013-03-25 05:06:00,32.0,25.0,29.95,ESE,117,5.0,5.0,75,0.00,,,0.00,0,WeatherCatV1.14B232,2013-03-25 05:06:00,
2013-03-25 05:11:00,32.0,25.3,29.95,ESE,113,0.0,3.0,76,0.00,,,0.00,0,WeatherCatV1.14B232,2013-03-25 05:11:00,
2013-03-25 05:16:00,32.0,25.3,29.95,SE,128,1.0,2.0,76,0.00,,,0.00,0,WeatherCatV1.14B232,2013-03-25 05:16:00,
2013-03-25 05:21:00,31.9,25.2,29.95,SE,134,0.0,5.0,76,0.00,,,0.00,0,WeatherCatV1.14B232,2013-03-25 05:21:00,
2013-03-25 05:26:00,31.9,25.2,29.95,ESE,119,1.0,2.0,76,0.00,,,0.00,0,WeatherCatV1.14B232,2013-03-25 05:26:00,
2013-03-25 05:31:00,31.9,25.2,29.95,SE,146,5.0,5.0,76,0.00,,,0.00,0,WeatherCatV1.14B232,2013-03-25 05:31:00,
2013-03-25 05:36:00,31.9,25.2,29.96,SE,134,3.0,7.0,76,0.00,,,0.00,0,WeatherCatV1.14B232,2013-03-25 05:36:00,
2013-03-25 05:41:00,31.9,25.2,29.96,West,260,1.0,2.0,76,0.00,,,0.00,0,WeatherCatV1.14B232,2013-03-25 05:41:00,
2013-03-25 05:46:00,31.9,25.2,29.96,ESE,114,1.0,5.0,76,0.00,,,0.00,0,WeatherCatV1.14B232,2013-03-25 05:46:00,
2013-03-25 05:51:00,31.8,25.1,29.96,SSE,150,1.0,7.0,76,0.00,,,0.00,0,WeatherCatV1.14B232,2013-03-25 05:51:00,
2013-03-25 05:56:00,31.8,25.1,29.96,ESE,109,1.0,1.0,76,0.00,,,0.00,0,WeatherCatV1.14B232,2013-03-25 05:56:00,
2013-03-25 06:01:00,31.8,25.1,29.96,SSE,165,2.0,4.0,76,0.00,,,0.00,0,WeatherCatV1.14B232,2013-03-25 06:01:00,
2013-03-25 06:06:00,31.8,25.1,29.96,SSE,158,1.0,5.0,76,0.00,,,0.00,0,WeatherCatV1.14B232,2013-03-25 06:06:00,
2013-03-25 06:11:00,31.8,25.1,29.96,SE,131,3.0,5.0,76,0.00,,,0.00,5,WeatherCatV1.14B232,2013-03-25 06:11:00,
2013-03-25 06:16:00,31.8,25.1,29.96,SE,125,3.0,3.0,76,0.00,,,0.00,7,WeatherCatV1.14B232,2013-03-25 06:16:00,
2013-03-25 06:21:00,31.7,25.0,29.96,ESE,113,1.0,4.0,76,0.00,,,0.00,9,WeatherCatV1.14B232,2013-03-25 06:21:00,
2013-03-25 06:26:00,31.7,25.0,29.96,SE,129,2.0,5.0,76,0.00,,,0.00,12,WeatherCatV1.14B232,2013-03-25 06:26:00,
2013-03-25 06:31:00,31.7,25.0,29.96,SE,138,5.0,5.0,76,0.00,,,0.00,14,WeatherCatV1.14B232,2013-03-25 06:31:00,
2013-03-25 06:36:00,31.7,25.0,29.96,SE,134,1.0,10.0,76,0.00,,,0.00,16,WeatherCatV1.14B232,2013-03-25 06:36:00,
2013-03-25 06:41:00,31.7,25.3,29.96,SE,140,1.0,6.0,77,0.00,,,0.00,19,WeatherCatV1.14B232,2013-03-25 06:41:00,
2013-03-25 06:46:00,31.7,25.3,29.96,SE,128,2.0,4.0,77,0.00,,,0.00,21,WeatherCatV1.14B232,2013-03-25 06:46:00,
2013-03-25 06:51:00,31.8,25.4,29.96,SE,125,2.0,5.0,77,0.00,,,0.00,25,WeatherCatV1.14B232,2013-03-25 06:51:00,
2013-03-25 06:56:00,31.8,25.4,29.97,SE,140,2.0,8.0,77,0.00,,,0.00,28,WeatherCatV1.14B232,2013-03-25 06:56:00,
2013-03-25 07:01:00,31.8,25.4,29.97,ESE,123,0.0,7.0,77,0.00,,,0.00,30,WeatherCatV1.14B232,2013-03-25 07:01:00,
2013-03-25 07:06:00,31.8,25.4,29.97,SE,137,3.0,6.0,77,0.00,,,0.00,33,WeatherCatV1.14B232,2013-03-25 07:06:00,
2013-03-25 07:11:00,31.9,25.5,29.97,SE,131,3.0,3.0,77,0.00,,,0.00,33,WeatherCatV1.14B232,2013-03-25 07:11:00,
2013-03-25 07:16:00,31.9,25.5,29.97,SE,134,5.0,5.0,77,0.00,,,0.00,37,WeatherCatV1.14B232,2013-03-25 07:16:00,
2013-03-25 07:21:00,31.9,25.8,29.97,South,171,0.0,1.0,78,0.00,,,0.00,44,WeatherCatV1.14B232,2013-03-25 07:21:00,
2013-03-25 07:26:00,31.9,25.8,29.97,ESE,121,5.0,5.0,78,0.00,,,0.00,44,WeatherCatV1.14B232,2013-03-25 07:26:00,
2013-03-25 07:31:00,32.0,25.9,29.97,SE,130,6.0,9.0,78,0.00,,,0.00,47,WeatherCatV1.14B232,2013-03-25 07:31:00,
2013-03-25 07:36:00,32.0,25.9,29.97,SSW,198,1.0,7.0,78,0.00,,,0.00,56,WeatherCatV1.14B232,2013-03-25 07:36:00,
2013-03-25 07:41:00,32.0,25.9,29.97,ESE,119,3.0,5.0,78,0.00,,,0.00,54,WeatherCatV1.14B232,2013-03-25 07:41:00,
2013-03-25 07:46:00,32.1,26.0,29.97,ESE,122,3.0,5.0,78,0.00,,,0.00,63,WeatherCatV1.14B232,2013-03-25 07:46:00,
2013-03-25 07:51:00,32.1,26.0,29.97,SSW,195,1.0,9.0,78,0.00,,,0.00,65,WeatherCatV1.14B232,2013-03-25 07:51:00,
2013-03-25 07:56:00,32.1,26.0,29.97,SSE,155,1.0,6.0,78,0.00,,,0.00,65,WeatherCatV1.14B232,2013-03-25 07:56:00,
2013-03-25 08:01:00,32.1,26.0,29.97,SE,128,2.0,8.0,78,0.00,,,0.00,74,WeatherCatV1.14B232,2013-03-25 08:01:00,
2013-03-25 08:06:00,32.1,26.0,29.97,SE,129,2.0,10.0,78,0.00,,,0.00,70,WeatherCatV1.14B232,2013-03-25 08:06:00,
2013-03-25 08:11:00,32.1,26.0,29.97,SE,138,3.0,6.0,78,0.00,,,0.00,76,WeatherCatV1.14B232,2013-03-25 08:11:00,
2013-03-25 08:16:00,32.2,26.1,29.97,SSE,148,2.0,12.0,78,0.00,,,0.00,97,WeatherCatV1.14B232,2013-03-25 08:16:00,
2013-03-25 08:21:00,32.2,26.1,29.97,SE,143,2.0,8.0,78,0.00,,,0.00,97,WeatherCatV1.14B232,2013-03-25 08:21:00,
2013-03-25 08:26:00,32.4,26.3,29.97,SE,134,3.0,5.0,78,0.00,,,0.00,107,WeatherCatV1.14B232,2013-03-25 08:26:00,
2013-03-25 08:31:00,32.4,26.0,29.97,SE,136,5.0,9.0,77,0.00,,,0.00,111,WeatherCatV1.14B232,2013-03-25 08:31:00,
2013-03-25 08:36:00,32.4,26.3,29.97,ENE,74,2.0,4.0,78,0.00,,,0.00,113,WeatherCatV1.14B232,2013-03-25 08:36:00,
2013-03-25 08:41:00,32.5,26.4,29.97,SSE,155,1.0,5.0,78,0.00,,,0.00,130,WeatherCatV1.14B232,2013-03-25 08:41:00,
2013-03-25 08:46:00,32.4,26.0,29.97,ESE,120,3.0,12.0,77,0.00,,,0.00,134,WeatherCatV1.14B232,2013-03-25 08:46:00,
2013-03-25 08:51:00,32.5,26.1,29.97,SE,132,3.0,7.0,77,0.00,,,0.00,128,WeatherCatV1.14B232,2013-03-25 08:51:00,
2013-03-25 08:56:00,32.6,26.5,29.97,SE,126,3.0,8.0,78,0.00,,,0.00,137,WeatherCatV1.14B232,2013-03-25 08:56:00,
2013-03-25 09:01:00,32.6,26.5,29.97,SE,132,6.0,6.0,78,0.00,,,0.00,153,WeatherCatV1.14B232,2013-03-25 09:01:00,
2013-03-25 09:06:00,32.6,26.5,29.97,SE,129,2.0,8.0,78,0.00,,,0.00,142,WeatherCatV1.14B232,2013-03-25 09:06:00,
2013-03-25 09:11:00,32.6,26.5,29.97,SE,124,4.0,8.0,78,0.00,,,0.00,137,WeatherCatV1.14B232,2013-03-25 09:11:00,
2013-03-25 09:16:00,32.6,26.5,29.97,ESE,113,9.0,9.0,78,0.00,,,0.00,153,WeatherCatV1.14B232,2013-03-25 09:16:00,
2013-03-25 09:21:00,32.8,26.7,29.97,SSE,165,5.0,7.0,78,0.00,,,0.00,144,WeatherCatV1.14B232,2013-03-25 09:21:00,
2013-03-25 09:26:00,32.8,26.7,29.97,SE,143,1.0,6.0,78,0.00,,,0.00,139,WeatherCatV1.14B232,2013-03-25 09:26:00,
2013-03-25 09:31:00,32.8,26.7,29.97,SE,129,3.0,15.0,78,0.00,,,0.00,116,WeatherCatV1.14B232,2013-03-25 09:31:00,
2013-03-25 09:36:00,32.9,26.8,29.97,ESE,120,2.0,6.0,78,0.00,,,0.00,144,WeatherCatV1.14B232,2013-03-25 09:36:00,
2013-03-25 09:41:00,32.8,26.7,29.97,SE,143,5.0,11.0,78,0.00,,,0.00,118,WeatherCatV1.14B232,2013-03-25 09:41:00,
2013-03-25 09:46:00,32.8,26.7,29.97,SE,139,4.0,4.0,78,0.00,,,0.00,169,WeatherCatV1.14B232,2013-03-25 09:46:00,
2013-03-25 09:51:00,32.9,26.8,29.97,NW,309,2.0,12.0,78,0.00,,,0.00,183,WeatherCatV1.14B232,2013-03-25 09:51:00,
2013-03-25 09:56:00,32.9,26.8,29.97,SE,134,0.0,8.0,78,0.00,,,0.00,130,WeatherCatV1.14B232,2013-03-25 09:56:00,
2013-03-25 10:01:00,32.8,26.4,29.97,SE,126,5.0,8.0,77,0.00,,,0.00,128,WeatherCatV1.14B232,2013-03-25 10:01:00,
2013-03-25 10:06:00,32.8,26.4,29.97,SE,144,4.0,11.0,77,0.00,,,0.00,127,WeatherCatV1.14B232,2013-03-25 10:06:00,
2013-03-25 10:11:00,32.9,26.8,29.97,ESE,121,5.0,8.0,78,0.00,,,0.00,151,WeatherCatV1.14B232,2013-03-25 10:11:00,
2013-03-25 10:16:00,33.0,26.6,29.97,SE,130,1.0,4.0,77,0.00,,,0.00,172,WeatherCatV1.14B232,2013-03-25 10:16:00,
2013-03-25 10:21:00,33.0,26.6,29.97,SSW,194,3.0,10.0,77,0.00,,,0.00,146,WeatherCatV1.14B232,2013-03-25 10:21:00,
2013-03-25 10:26:00,33.2,26.8,29.96,ESE,121,3.0,12.0,77,0.00,,,0.00,186,WeatherCatV1.14B232,2013-03-25 10:26:00,
2013-03-25 10:31:00,33.3,26.9,29.96,SE,126,4.0,6.0,77,0.00,,,0.00,202,WeatherCatV1.14B232,2013-03-25 10:31:00,
2013-03-25 10:36:00,33.3,26.6,29.96,SE,128,7.0,7.0,76,0.00,,,0.00,216,WeatherCatV1.14B232,2013-03-25 10:36:00,
2013-03-25 10:41:00,33.2,26.5,29.96,SE,129,2.0,10.0,76,0.00,,,0.00,176,WeatherCatV1.14B232,2013-03-25 10:41:00,
2013-03-25 10:46:00,33.3,26.9,29.96,SE,137,5.0,8.0,77,0.00,,,0.00,209,WeatherCatV1.14B232,2013-03-25 10:46:00,
2013-03-25 10:51:00,33.2,26.5,29.96,SE,127,2.0,5.0,76,0.00,,,0.00,195,WeatherCatV1.14B232,2013-03-25 10:51:00,
2013-03-25 10:56:00,33.3,26.9,29.96,NW,313,3.0,9.0,77,0.00,,,0.00,221,WeatherCatV1.14B232,2013-03-25 10:56:00,
2013-03-25 11:01:00,33.5,26.8,29.96,SE,130,5.0,7.0,76,0.00,,,0.00,171,WeatherCatV1.14B232,2013-03-25 11:01:00,
2013-03-25 11:06:00,33.4,26.7,29.96,SE,128,8.0,8.0,76,0.00,,,0.00,162,WeatherCatV1.14B232,2013-03-25 11:06:00,
2013-03-25 11:11:00,33.4,26.7,29.96,SE,129,3.0,8.0,76,0.00,,,0.00,174,WeatherCatV1.14B232,2013-03-25 11:11:00,
2013-03-25 11:16:00,33.5,26.8,29.96,SE,126,2.0,7.0,76,0.00,,,0.00,176,WeatherCatV1.14B232,2013-03-25 11:16:00,
2013-03-25 11:21:00,33.5,26.8,29.96,SE,131,9.0,11.0,76,0.00,,,0.01,176,WeatherCatV1.14B232,2013-03-25 11:21:00,
2013-03-25 11:26:00,33.5,26.8,29.96,ESE,123,4.0,10.0,76,0.00,,,0.01,149,WeatherCatV1.14B232,2013-03-25 11:26:00,
2013-03-25 11:31:00,33.5,26.8,29.96,SE,142,2.0,18.0,76,0.00,,,0.01,160,WeatherCatV1.14B232,2013-03-25 11:31:00,
2013-03-25 11:36:00,33.5,26.8,29.96,ESE,113,4.0,11.0,76,0.00,,,0.01,158,WeatherCatV1.14B232,2013-03-25 11:36:00,
2013-03-25 11:41:00,33.4,26.7,29.96,SSE,168,2.0,8.0,76,0.00,,,0.01,134,WeatherCatV1.14B232,2013-03-25 11:41:00,
2013-03-25 11:46:00,33.4,26.7,29.96,ESE,115,7.0,7.0,76,0.00,,,0.01,113,WeatherCatV1.14B232,2013-03-25 11:46:00,
2013-03-25 11:51:00,33.4,27.0,29.96,SE,139,3.0,14.0,77,0.00,,,0.01,125,WeatherCatV1.14B232,2013-03-25 11:51:00,
2013-03-25 11:56:00,33.3,26.9,29.96,SE,131,3.0,3.0,77,0.00,,,0.01,97,WeatherCatV1.14B232,2013-03-25 11:56:00,
2013-03-25 12:01:00,33.2,27.1,29.96,ESE,111,0.0,3.0,78,0.00,,,0.01,84,WeatherCatV1.14B232,2013-03-25 12:01:00,
2013-03-25 12:06:00,33.2,27.1,29.96,SSE,155,6.0,12.0,78,0.00,,,0.01,91,WeatherCatV1.14B232,2013-03-25 12:06:00,
2013-03-25 12:11:00,33.1,27.0,29.96,ESE,106,3.0,7.0,78,0.00,,,0.01,91,WeatherCatV1.14B232,2013-03-25 12:11:00,
2013-03-25 12:16:00,33.1,27.0,29.96,ESE,121,3.0,7.0,78,0.00,,,0.01,107,WeatherCatV1.14B232,2013-03-25 12:16:00,
2013-03-25 12:21:00,33.1,27.0,29.96,SE,137,5.0,9.0,78,0.00,,,0.01,123,WeatherCatV1.14B232,2013-03-25 12:21:00,
2013-03-25 12:26:00,33.1,27.0,29.95,SE,134,0.0,5.0,78,0.00,,,0.01,137,WeatherCatV1.14B232,2013-03-25 12:26:00,
2013-03-25 12:31:00,33.2,27.4,29.95,SE,136,1.0,5.0,79,0.00,,,0.01,100,WeatherCatV1.14B232,2013-03-25 12:31:00,
2013-03-25 12:36:00,33.1,27.0,29.95,SE,131,4.0,5.0,78,0.00,,,0.01,118,WeatherCatV1.14B232,2013-03-25 12:36:00,
2013-03-25 12:41:00,33.2,27.1,29.96,SE,136,3.0,8.0,78,0.00,,,0.01,121,WeatherCatV1.14B232,2013-03-25 12:41:00,
2013-03-25 12:46:00,33.3,27.5,29.96,SE,133,2.0,5.0,79,0.00,,,0.01,95,WeatherCatV1.14B232,2013-03-25 12:46:00,
2013-03-25 12:51:00,33.3,27.5,29.95,ESE,115,4.0,4.0,79,0.00,,,0.01,93,WeatherCatV1.14B232,2013-03-25 12:51:00,
2013-03-25 12:56:00,33.2,27.4,29.95,SSE,157,1.0,3.0,79,0.00,,,0.01,98,WeatherCatV1.14B232,2013-03-25 12:56:00,
2013-03-25 13:01:00,33.1,27.3,29.95,SE,132,7.0,8.0,79,0.00,,,0.01,114,WeatherCatV1.14B232,2013-03-25 13:01:00,
2013-03-25 13:06:00,33.1,27.3,29.95,SE,137,2.0,9.0,79,0.00,,,0.01,120,WeatherCatV1.14B232,2013-03-25 13:06:00,
2013-03-25 13:11:00,33.1,27.3,29.96,ESE,123,4.0,11.0,79,0.00,,,0.01,91,WeatherCatV1.14B232,2013-03-25 13:11:00,
2013-03-25 13:16:00,33.0,26.9,29.95,SE,132,4.0,8.0,78,0.00,,,0.01,88,WeatherCatV1.14B232,2013-03-25 13:16:00,
2013-03-25 13:21:00,33.0,27.2,29.95,SE,124,2.0,8.0,79,0.00,,,0.01,95,WeatherCatV1.14B232,2013-03-25 13:21:00,
2013-03-25 13:26:00,33.0,27.2,29.95,SE,142,3.0,7.0,79,0.00,,,0.01,113,WeatherCatV1.14B232,2013-03-25 13:26:00,
2013-03-25 13:31:00,33.0,27.2,29.95,SE,130,5.0,10.0,79,0.00,,,0.01,118,WeatherCatV1.14B232,2013-03-25 13:31:00,
2013-03-25 13:36:00,33.1,27.0,29.95,SE,124,6.0,11.0,78,0.00,,,0.01,120,WeatherCatV1.14B232,2013-03-25 13:36:00,
2013-03-25 13:41:00,33.1,27.0,29.95,South,180,5.0,7.0,78,0.00,,,0.01,113,WeatherCatV1.14B232,2013-03-25 13:41:00,
2013-03-25 13:46:00,33.2,27.1,29.95,SE,137,4.0,12.0,78,0.00,,,0.01,107,WeatherCatV1.14B232,2013-03-25 13:46:00,
2013-03-25 13:51:00,33.2,27.1,29.95,SE,129,4.0,4.0,78,0.00,,,0.01,90,WeatherCatV1.14B232,2013-03-25 13:51:00,
2013-03-25 13:56:00,33.2,27.1,29.95,SE,128,5.0,7.0,78,0.00,,,0.01,95,WeatherCatV1.14B232,2013-03-25 13:56:00,
2013-03-25 14:01:00,33.1,27.0,29.95,SE,136,3.0,4.0,78,0.00,,,0.01,98,WeatherCatV1.14B232,2013-03-25 14:01:00,
2013-03-25 14:06:00,33.3,27.2,29.95,South,181,1.0,9.0,78,0.00,,,0.01,97,WeatherCatV1.14B232,2013-03-25 14:06:00,
2013-03-25 14:11:00,33.3,27.2,29.94,ESE,105,3.0,7.0,78,0.00,,,0.01,79,WeatherCatV1.14B232,2013-03-25 14:11:00,
2013-03-25 14:16:00,33.3,27.2,29.94,SSE,151,5.0,8.0,78,0.00,,,0.01,84,WeatherCatV1.14B232,2013-03-25 14:16:00,
2013-03-25 14:21:00,33.2,26.8,29.94,SE,144,0.0,8.0,77,0.00,,,0.01,102,WeatherCatV1.14B232,2013-03-25 14:21:00,
2013-03-25 14:26:00,33.3,26.9,29.94,SE,142,4.0,9.0,77,0.00,,,0.01,109,WeatherCatV1.14B232,2013-03-25 14:26:00,
2013-03-25 14:31:00,33.4,27.0,29.94,SE,130,2.0,8.0,77,0.00,,,0.01,107,WeatherCatV1.14B232,2013-03-25 14:31:00,
2013-03-25 14:36:00,33.4,27.0,29.94,SE,144,1.0,3.0,77,0.00,,,0.01,76,WeatherCatV1.14B232,2013-03-25 14:36:00,
2013-03-25 14:41:00,33.4,27.0,29.94,ESE,123,2.0,4.0,77,0.00,,,0.01,128,WeatherCatV1.14B232,2013-03-25 14:41:00,
2013-03-25 14:46:00,33.5,27.4,29.94,ESE,121,4.0,9.0,78,0.00,,,0.01,142,WeatherCatV1.14B232,2013-03-25 14:46:00,
2013-03-25 14:51:00,33.6,26.9,29.94,SE,127,4.0,10.0,76,0.00,,,0.01,148,WeatherCatV1.14B232,2013-03-25 14:51:00,
2013-03-25 14:56:00,33.6,27.2,29.94,SE,145,3.0,6.0,77,0.00,,,0.01,114,WeatherCatV1.14B232,2013-03-25 14:56:00,
2013-03-25 15:01:00,33.6,27.2,29.94,SSE,155,4.0,4.0,77,0.00,,,0.01,128,WeatherCatV1.14B232,2013-03-25 15:01:00,
2013-03-25 15:06:00,33.7,27.3,29.94,ESE,119,0.0,3.0,77,0.00,,,0.01,104,WeatherCatV1.14B232,2013-03-25 15:06:00,
2013-03-25 15:11:00,33.7,27.3,29.94,ESE,123,2.0,7.0,77,0.00,,,0.01,120,WeatherCatV1.14B232,2013-03-25 15:11:00,
2013-03-25 15:16:00,33.7,27.3,29.94,ENE,76,2.0,3.0,77,0.00,,,0.01,93,WeatherCatV1.14B232,2013-03-25 15:16:00,
2013-03-25 15:21:00,33.7,27.3,29.94,ESE,102,2.0,11.0,77,0.00,,,0.01,81,WeatherCatV1.14B232,2013-03-25 15:21:00,
2013-03-25 15:26:00,33.6,26.9,29.93,SE,128,3.0,5.0,76,0.00,,,0.01,70,WeatherCatV1.14B232,2013-03-25 15:26:00,
2013-03-25 15:31:00,33.5,26.8,29.93,SSE,158,2.0,5.0,76,0.00,,,0.01,69,WeatherCatV1.14B232,2013-03-25 15:31:00,
2013-03-25 15:36:00,33.5,26.8,29.93,ESE,118,3.0,8.0,76,0.00,,,0.01,67,WeatherCatV1.14B232,2013-03-25 15:36:00,
2013-03-25 15:41:00,33.6,26.9,29.93,SE,127,4.0,8.0,76,0.00,,,0.01,56,WeatherCatV1.14B232,2013-03-25 15:41:00,
2013-03-25 15:46:00,33.6,26.9,29.93,SE,132,2.0,6.0,76,0.00,,,0.01,51,WeatherCatV1.14B232,2013-03-25 15:46:00,
2013-03-25 15:51:00,33.5,26.8,29.93,ESE,120,1.0,7.0,76,0.00,,,0.01,49,WeatherCatV1.14B232,2013-03-25 15:51:00,
2013-03-25 15:56:00,33.5,26.8,29.93,SE,124,2.0,7.0,76,0.00,,,0.01,47,WeatherCatV1.14B232,2013-03-25 15:56:00,
2013-03-25 16:01:00,33.5,27.1,29.93,SE,127,2.0,4.0,77,0.00,,,0.01,58,WeatherCatV1.14B232,2013-03-25 16:01:00,
2013-03-25 16:06:00,33.6,26.9,29.93,SSE,165,5.0,5.0,76,0.00,,,0.01,44,WeatherCatV1.14B232,2013-03-25 16:06:00,
2013-03-25 16:11:00,33.6,26.9,29.93,SE,126,0.0,4.0,76,0.00,,,0.01,42,WeatherCatV1.14B232,2013-03-25 16:11:00,
2013-03-25 16:16:00,33.5,26.8,29.93,SE,136,4.0,9.0,76,0.00,,,0.01,33,WeatherCatV1.14B232,2013-03-25 16:16:00,
2013-03-25 16:21:00,33.5,26.4,29.93,SE,125,2.0,5.0,75,0.00,,,0.01,39,WeatherCatV1.14B232,2013-03-25 16:21:00,
2013-03-25 16:26:00,33.5,26.8,29.93,SE,126,7.0,9.0,76,0.00,,,0.01,42,WeatherCatV1.14B232,2013-03-25 16:26:00,
2013-03-25 16:31:00,33.6,26.9,29.93,ESE,111,0.0,4.0,76,0.00,,,0.01,47,WeatherCatV1.14B232,2013-03-25 16:31:00,
2013-03-25 16:36:00,33.7,27.0,29.93,SE,130,3.0,10.0,76,0.00,,,0.01,53,WeatherCatV1.14B232,2013-03-25 16:36:00,
2013-03-25 16:41:00,33.7,26.6,29.93,SE,129,1.0,8.0,75,0.00,,,0.01,42,WeatherCatV1.14B232,2013-03-25 16:41:00,
2013-03-25 16:46:00,33.7,26.6,29.93,East,96,2.0,7.0,75,0.00,,,0.01,37,WeatherCatV1.14B232,2013-03-25 16:46:00,
2013-03-25 16:51:00,33.7,26.6,29.93,SE,136,0.0,2.0,75,0.00,,,0.01,28,WeatherCatV1.14B232,2013-03-25 16:51:00,
2013-03-25 16:56:00,33.7,26.6,29.93,SSE,155,6.0,10.0,75,0.00,,,0.01,35,WeatherCatV1.14B232,2013-03-25 16:56:00,
2013-03-25 17:01:00,33.7,26.6,29.93,SE,132,11.0,11.0,75,0.00,,,0.01,54,WeatherCatV1.14B232,2013-03-25 17:01:00,
2013-03-25 17:06:00,33.7,26.6,29.93,SSE,149,1.0,7.0,75,0.00,,,0.01,26,WeatherCatV1.14B232,2013-03-25 17:06:00,
2013-03-25 17:11:00,33.8,26.7,29.93,SE,130,8.0,8.0,75,0.00,,,0.01,21,WeatherCatV1.14B232,2013-03-25 17:11:00,
2013-03-25 17:16:00,33.8,26.7,29.93,ESE,118,1.0,3.0,75,0.00,,,0.01,18,WeatherCatV1.14B232,2013-03-25 17:16:00,
2013-03-25 17:21:00,33.8,27.1,29.93,SE,128,1.0,4.0,76,0.00,,,0.01,19,WeatherCatV1.14B232,2013-03-25 17:21:00,
2013-03-25 17:26:00,33.8,27.1,29.93,SE,138,4.0,5.0,76,0.00,,,0.01,21,WeatherCatV1.14B232,2013-03-25 17:26:00,
2013-03-25 17:31:00,33.8,27.1,29.93,ESE,123,8.0,8.0,76,0.00,,,0.01,16,WeatherCatV1.14B232,2013-03-25 17:31:00,
2013-03-25 17:36:00,33.8,27.1,29.93,North,355,1.0,7.0,76,0.00,,,0.01,14,WeatherCatV1.14B232,2013-03-25 17:36:00,
2013-03-25 17:41:00,33.8,27.1,29.93,ESE,120,5.0,5.0,76,0.00,,,0.01,14,WeatherCatV1.14B232,2013-03-25 17:41:00,
2013-03-25 17:46:00,33.8,27.1,29.94,ESE,117,9.0,10.0,76,0.00,,,0.01,12,WeatherCatV1.14B232,2013-03-25 17:46:00,
2013-03-25 17:51:00,33.9,27.1,29.94,ESE,119,2.0,8.0,76,0.00,,,0.01,9,WeatherCatV1.14B232,2013-03-25 17:51:00,
2013-03-25 17:56:00,33.9,27.1,29.93,SE,130,3.0,3.0,76,0.00,,,0.01,7,WeatherCatV1.14B232,2013-03-25 17:56:00,
2013-03-25 18:01:00,33.9,27.1,29.93,SE,128,1.0,4.0,76,0.00,,,0.01,7,WeatherCatV1.14B232,2013-03-25 18:01:00,
2013-03-25 18:06:00,33.9,27.1,29.93,South,172,0.0,3.0,76,0.00,,,0.01,5,WeatherCatV1.14B232,2013-03-25 18:06:00,
2013-03-25 18:11:00,33.9,27.1,29.93,SSE,148,0.0,3.0,76,0.00,,,0.01,0,WeatherCatV1.14B232,2013-03-25 18:11:00,
2013-03-25 18:16:00,33.9,27.1,29.93,SE,138,3.0,4.0,76,0.00,,,0.01,0,WeatherCatV1.14B232,2013-03-25 18:16:00,
2013-03-25 18:21:00,33.9,27.5,29.94,ESE,109,1.0,3.0,77,0.00,,,0.01,0,WeatherCatV1.14B232,2013-03-25 18:21:00,
2013-03-25 18:26:00,33.8,27.4,29.94,SE,130,0.0,7.0,77,0.00,,,0.01,0,WeatherCatV1.14B232,2013-03-25 18:26:00,
2013-03-25 18:31:00,33.8,27.4,29.94,SE,130,0.0,3.0,77,0.00,,,0.01,0,WeatherCatV1.14B232,2013-03-25 18:31:00,
2013-03-25 18:36:00,33.8,27.1,29.94,ESE,105,2.0,4.0,76,0.00,,,0.01,0,WeatherCatV1.14B232,2013-03-25 18:36:00,
2013-03-25 18:41:00,33.8,27.4,29.94,SE,127,5.0,5.0,77,0.00,,,0.01,0,WeatherCatV1.14B232,2013-03-25 18:41:00,
2013-03-25 18:46:00,33.8,27.4,29.94,SE,130,4.0,6.0,77,0.00,,,0.01,0,WeatherCatV1.14B232,2013-03-25 18:46:00,
2013-03-25 18:51:00,33.8,27.4,29.94,SE,130,3.0,7.0,77,0.00,,,0.01,0,WeatherCatV1.14B232,2013-03-25 18:51:00,
2013-03-25 18:56:00,33.8,27.4,29.94,ESE,116,2.0,5.0,77,0.00,,,0.01,0,WeatherCatV1.14B232,2013-03-25 18:56:00,
2013-03-25 19:01:00,33.7,27.3,29.94,SSE,156,0.0,3.0,77,0.00,,,0.01,0,WeatherCatV1.14B232,2013-03-25 19:01:00,
2013-03-25 19:06:00,33.7,27.3,29.94,SE,126,4.0,4.0,77,0.00,,,0.01,0,WeatherCatV1.14B232,2013-03-25 19:06:00,
2013-03-25 19:11:00,33.7,27.3,29.94,SE,126,3.0,5.0,77,0.00,,,0.01,0,WeatherCatV1.14B232,2013-03-25 19:11:00,
2013-03-25 19:16:00,33.7,27.3,29.94,ESE,122,0.0,3.0,77,0.00,,,0.01,0,WeatherCatV1.14B232,2013-03-25 19:16:00,
2013-03-25 19:21:00,33.7,27.3,29.94,SE,133,2.0,5.0,77,0.00,,,0.01,0,WeatherCatV1.14B232,2013-03-25 19:21:00,
2013-03-25 19:26:00,33.6,27.5,29.94,North,5,1.0,3.0,78,0.00,,,0.01,0,WeatherCatV1.14B232,2013-03-25 19:26:00,
2013-03-25 19:31:00,33.6,27.5,29.94,SE,131,2.0,7.0,78,0.00,,,0.01,0,WeatherCatV1.14B232,2013-03-25 19:31:00,
2013-03-25 19:36:00,33.6,27.2,29.94,SE,130,0.0,5.0,77,0.00,,,0.01,0,WeatherCatV1.14B232,2013-03-25 19:36:00,
2013-03-25 19:41:00,33.6,27.2,29.94,SE,142,0.0,3.0,77,0.00,,,0.01,0,WeatherCatV1.14B232,2013-03-25 19:41:00,
2013-03-25 19:46:00,33.6,27.2,29.94,SE,137,0.0,3.0,77,0.00,,,0.01,0,WeatherCatV1.14B232,2013-03-25 19:46:00,
2013-03-25 19:51:00,33.6,27.5,29.94,South,187,1.0,4.0,78,0.00,,,0.01,0,WeatherCatV1.14B232,2013-03-25 19:51:00,
2013-03-25 19:56:00,33.5,27.4,29.94,SSE,160,0.0,1.0,78,0.00,,,0.01,0,WeatherCatV1.14B232,2013-03-25 19:56:00,
2013-03-25 20:01:00,33.5,27.4,29.94,SSE,150,0.0,1.0,78,0.00,,,0.01,0,WeatherCatV1.14B232,2013-03-25 20:01:00,
2013-03-25 20:06:00,33.4,27.3,29.94,SSE,165,1.0,7.0,78,0.00,,,0.01,0,WeatherCatV1.14B232,2013-03-25 20:06:00,
2013-03-25 20:11:00,33.4,27.6,29.94,East,91,2.0,3.0,79,0.00,,,0.01,0,WeatherCatV1.14B232,2013-03-25 20:11:00,
2013-03-25 20:16:00,33.4,27.6,29.94,ESE,123,4.0,4.0,79,0.00,,,0.01,0,WeatherCatV1.14B232,2013-03-25 20:16:00,
2013-03-25 20:21:00,33.4,27.9,29.94,NW,308,3.0,3.0,80,0.00,,,0.01,0,WeatherCatV1.14B232,2013-03-25 20:21:00,
2013-03-25 20:26:00,33.3,27.8,29.93,SE,142,1.0,6.0,80,0.00,,,0.01,0,WeatherCatV1.14B232,2013-03-25 20:26:00,
2013-03-25 20:31:00,33.3,27.8,29.94,SSE,157,0.0,4.0,80,0.00,,,0.01,0,WeatherCatV1.14B232,2013-03-25 20:31:00,
2013-03-25 20:36:00,33.3,27.8,29.94,SE,131,3.0,3.0,80,0.00,,,0.01,0,WeatherCatV1.14B232,2013-03-25 20:36:00,
2013-03-25 20:41:00,33.3,27.8,29.94,SE,130,1.0,1.0,80,0.00,,,0.01,0,WeatherCatV1.14B232,2013-03-25 20:41:00,
2013-03-25 20:46:00,33.3,28.1,29.94,SE,139,1.0,2.0,81,0.00,,,0.01,0,WeatherCatV1.14B232,2013-03-25 20:46:00,
2013-03-25 20:51:00,33.3,28.1,29.93,ESE,121,4.0,4.0,81,0.00,,,0.01,0,WeatherCatV1.14B232,2013-03-25 20:51:00,
2013-03-25 20:56:00,33.2,28.0,29.93,NE,54,2.0,2.0,81,0.00,,,0.01,0,WeatherCatV1.14B232,2013-03-25 20:56:00,
2013-03-25 21:01:00,33.2,28.0,29.93,NNW,332,1.0,3.0,81,0.00,,,0.01,0,WeatherCatV1.14B232,2013-03-25 21:01:00,
2013-03-25 21:06:00,33.1,28.2,29.93,SE,136,2.0,2.0,82,0.00,,,0.01,0,WeatherCatV1.14B232,2013-03-25 21:06:00,
2013-03-25 21:11:00,33.0,28.1,29.93,SSE,158,1.0,4.0,82,0.00,,,0.01,0,WeatherCatV1.14B232,2013-03-25 21:11:00,
2013-03-25 21:16:00,33.0,28.4,29.93,South,175,2.0,5.0,83,0.00,,,0.01,0,WeatherCatV1.14B232,2013-03-25 21:16:00,
2013-03-25 21:21:00,33.0,28.4,29.93,South,184,0.0,3.0,83,0.00,,,0.01,0,WeatherCatV1.14B232,2013-03-25 21:21:00,
2013-03-25 21:26:00,32.9,28.3,29.93,North,0,1.0,2.0,83,0.00,,,0.01,0,WeatherCatV1.14B232,2013-03-25 21:26:00,
2013-03-25 21:31:00,32.9,28.3,29.93,SE,144,0.0,3.0,83,0.00,,,0.01,0,WeatherCatV1.14B232,2013-03-25 21:31:00,
2013-03-25 21:36:00,32.9,28.3,29.93,SSE,150,2.0,4.0,83,0.00,,,0.01,0,WeatherCatV1.14B232,2013-03-25 21:36:00,
2013-03-25 21:41:00,33.0,28.4,29.93,NE,43,1.0,3.0,83,0.00,,,0.01,0,WeatherCatV1.14B232,2013-03-25 21:41:00,
2013-03-25 21:46:00,33.0,28.4,29.93,ESE,121,5.0,5.0,83,0.00,,,0.01,0,WeatherCatV1.14B232,2013-03-25 21:46:00,
2013-03-25 21:51:00,33.0,28.4,29.93,NW,318,0.0,1.0,83,0.00,,,0.01,0,WeatherCatV1.14B232,2013-03-25 21:51:00,
2013-03-25 21:56:00,33.0,28.4,29.93,ESE,110,0.0,5.0,83,0.00,,,0.01,0,WeatherCatV1.14B232,2013-03-25 21:56:00,
2013-03-25 22:01:00,33.0,28.7,29.93,SE,143,1.0,3.0,84,0.00,,,0.01,0,WeatherCatV1.14B232,2013-03-25 22:01:00,
2013-03-25 22:06:00,32.9,28.6,29.92,SE,132,1.0,3.0,84,0.00,,,0.01,0,WeatherCatV1.14B232,2013-03-25 22:06:00,
2013-03-25 22:11:00,33.0,28.4,29.93,South,172,1.0,2.0,83,0.00,,,0.01,0,WeatherCatV1.14B232,2013-03-25 22:11:00,
2013-03-25 22:16:00,33.0,28.4,29.92,SSE,158,0.0,5.0,83,0.00,,,0.01,0,WeatherCatV1.14B232,2013-03-25 22:16:00,
2013-03-25 22:21:00,33.0,28.4,29.92,South,178,0.0,1.0,83,0.00,,,0.01,0,WeatherCatV1.14B232,2013-03-25 22:21:00,
2013-03-25 22:26:00,33.0,28.4,29.92,SE,132,0.0,5.0,83,0.00,,,0.01,0,WeatherCatV1.14B232,2013-03-25 22:26:00,
2013-03-25 22:31:00,33.0,28.4,29.92,ENE,73,4.0,4.0,83,0.00,,,0.01,0,WeatherCatV1.14B232,2013-03-25 22:31:00,
2013-03-25 22:36:00,33.0,28.4,29.92,SSE,148,0.0,5.0,83,0.00,,,0.01,0,WeatherCatV1.14B232,2013-03-25 22:36:00,
2013-03-25 22:41:00,33.0,28.4,29.92,ESE,115,0.0,1.0,83,0.00,,,0.01,0,WeatherCatV1.14B232,2013-03-25 22:41:00,
2013-03-25 22:46:00,33.0,28.4,29.92,NNE,27,3.0,3.0,83,0.00,,,0.01,0,WeatherCatV1.14B232,2013-03-25 22:46:00,
2013-03-25 22:51:00,33.1,28.5,29.92,East,86,0.0,6.0,83,0.00,,,0.01,0,WeatherCatV1.14B232,2013-03-25 22:51:00,
2013-03-25 22:56:00,33.1,28.5,29.92,ESE,116,1.0,4.0,83,0.00,,,0.01,0,WeatherCatV1.14B232,2013-03-25 22:56:00,
2013-03-25 23:01:00,33.1,28.2,29.92,East,94,0.0,1.0,82,0.00,,,0.01,0,WeatherCatV1.14B232,2013-03-25 23:01:00,
2013-03-25 23:06:00,33.1,28.2,29.92,ESE,123,0.0,6.0,82,0.00,,,0.01,0,WeatherCatV1.14B232,2013-03-25 23:06:00,
2013-03-25 23:11:00,33.2,28.3,29.92,SW,219,2.0,2.0,82,0.00,,,0.01,0,WeatherCatV1.14B232,2013-03-25 23:11:00,
2013-03-25 23:16:00,33.2,28.3,29.92,SSE,161,2.0,2.0,82,0.00,,,0.01,0,WeatherCatV1.14B232,2013-03-25 23:16:00,
2013-03-25 23:21:00,33.2,28.3,29.92,SE,126,1.0,1.0,82,0.00,,,0.01,0,WeatherCatV1.14B232,2013-03-25 23:21:00,
2013-03-25 23:26:00,33.2,28.3,29.92,SE,134,2.0,4.0,82,0.00,,,0.01,0,WeatherCatV1.14B232,2013-03-25 23:26:00,
2013-03-25 23:31:00,33.1,28.2,29.92,SE,128,0.0,5.0,82,0.00,,,0.01,0,WeatherCatV1.14B232,2013-03-25 23:31:00,
2013-03-25 23:36:00,33.1,28.2,29.92,SE,129,1.0,3.0,82,0.00,,,0.01,0,WeatherCatV1.14B232,2013-03-25 23:36:00,
2013-03-25 23:41:00,33.1,28.2,29.92,ESE,119,0.0,2.0,82,0.00,,,0.01,0,WeatherCatV1.14B232,2013-03-25 23:41:00,
2013-03-25 23:46:00,33.1,28.2,29.92,NNW,333,0.0,4.0,82,0.00,,,0.01,0,WeatherCatV1.14B232,2013-03-25 23:46:00,
2013-03-25 23:51:00,33.2,28.0,29.92,East,85,0.0,2.0,81,0.00,,,0.01,0,WeatherCatV1.14B232,2013-03-25 23:51:00,
2013-03-25 23:56:00,33.2,28.0,29.92,SSE,167,0.0,2.0,81,0.00,,,0.01,0,WeatherCatV1.14B232,2013-03-25 23:56:00,